TimeAKST,TemperatureF,Dew PointF,Humidity,Sea Level PressureIn,VisibilityMPH,Wind Direction,Wind SpeedMPH,Gust SpeedMPH,PrecipitationIn,Events,Conditions,WindDirDegrees,DateUTC
12:01 AM,32.0,30.2,93,29.79,1.2,Calm,Calm,-,0.00,Snow,Light Snow,0,2012-11-12 09:01:00
12:07 AM,32.0,30.2,93,29.79,1.5,Calm,Calm,-,0.00,Snow,Light Snow,0,2012-11-12 09:07:00
12:11 AM,32.0,30.2,93,29.79,1.2,Calm,Calm,-,0.00,Snow,Light Snow,0,2012-11-12 09:11:00
12:24 AM,32.0,30.2,93,29.79,1.5,Calm,Calm,-,0.01,Snow,Light Snow,0,2012-11-12 09:24:00
12:35 AM,32.0,30.2,93,29.79,1.2,Calm,Calm,-,0.01,Snow,Light Snow,0,2012-11-12 09:35:00
12:43 AM,32.0,30.2,93,29.79,1.8,Calm,Calm,-,0.01,Snow,Light Snow,0,2012-11-12 09:43:00
12:53 AM,32.0,30.9,96,29.79,1.8,Calm,Calm,-,0.01,Snow,Light Snow,0,2012-11-12 09:53:00
1:02 AM,32.0,30.2,93,29.79,1.5,Calm,Calm,-,0.00,Snow,Light Snow,0,2012-11-12 10:02:00
1:12 AM,32.0,30.2,93,29.79,1.2,Calm,Calm,-,0.00,Snow,Light Snow,0,2012-11-12 10:12:00
1:50 AM,32.0,30.2,93,29.80,1.8,Calm,Calm,-,0.01,Snow,Light Snow,0,2012-11-12 10:50:00
1:53 AM,32.0,30.9,96,29.80,1.8,Calm,Calm,-,0.01,Snow,Light Snow,0,2012-11-12 10:53:00
2:16 AM,32.0,30.2,93,29.80,2.0,Calm,Calm,-,0.00,Snow,Light Snow,0,2012-11-12 11:16:00
2:24 AM,32.0,30.2,93,29.80,1.5,Calm,Calm,-,0.00,Snow,Light Snow,0,2012-11-12 11:24:00
2:42 AM,32.0,30.2,93,29.80,2.0,Calm,Calm,-,0.01,Snow,Light Snow,0,2012-11-12 11:42:00
3:21 AM,32.0,30.2,93,29.80,1.5,Calm,Calm,-,0.01,Snow,Light Snow,0,2012-11-12 12:21:00
3:39 AM,32.0,30.2,93,29.80,1.2,Calm,Calm,-,0.02,Snow,Light Snow,0,2012-11-12 12:39:00
3:53 AM,32.0,30.9,96,29.81,1.5,Calm,Calm,-,0.02,Snow,Light Snow,0,2012-11-12 12:53:00
4:51 AM,32.0,30.2,93,29.81,2.0,Calm,Calm,-,0.02,Snow,Light Snow,0,2012-11-12 13:51:00
4:52 AM,32.0,30.9,96,29.82,2.0,Calm,Calm,-,0.02,Snow,Light Snow,0,2012-11-12 13:52:00
5:03 AM,32.0,30.2,93,29.81,4.0,Calm,Calm,-,0.00,,Overcast,0,2012-11-12 14:03:00
5:53 AM,32.0,30.9,96,29.82,3.0,Calm,Calm,-,0.00,Snow,Light Snow,0,2012-11-12 14:53:00
6:11 AM,32.0,30.2,93,29.82,3.0,Calm,Calm,-,0.01,Snow,Light Snow,0,2012-11-12 15:11:00
6:27 AM,33.8,30.2,87,29.82,3.0,Calm,Calm,-,0.02,Snow,Light Snow,0,2012-11-12 15:27:00
6:53 AM,33.1,30.9,92,29.83,4.0,Calm,Calm,-,0.03,Snow,Light Snow,0,2012-11-12 15:53:00
7:53 AM,33.1,30.9,92,29.84,8.0,Calm,Calm,-,0.02,Rain,Light Rain,0,2012-11-12 16:53:00
8:53 AM,33.1,30.9,92,29.86,7.0,Calm,Calm,-,0.01,Rain,Light Rain,0,2012-11-12 17:53:00
9:53 AM,35.1,32.0,89,29.87,10.0,Calm,Calm,-,0.01,,Overcast,0,2012-11-12 18:53:00
10:53 AM,36.0,30.9,82,29.89,10.0,Calm,Calm,-,0.00,,Overcast,0,2012-11-12 19:53:00
11:53 AM,36.0,30.0,79,29.90,10.0,Variable,3.5,-,N/A,,Overcast,0,2012-11-12 20:53:00
12:53 PM,35.1,30.0,82,29.91,10.0,Calm,Calm,-,N/A,,Overcast,0,2012-11-12 21:53:00
1:53 PM,36.0,28.0,73,29.91,10.0,North,5.8,-,N/A,,Overcast,350,2012-11-12 22:53:00
2:53 PM,36.0,27.0,70,29.92,10.0,NNW,4.6,-,N/A,,Overcast,340,2012-11-12 23:53:00
3:53 PM,35.1,27.0,72,29.93,10.0,Variable,3.5,-,N/A,,Overcast,0,2012-11-13 00:53:00
4:53 PM,35.1,27.0,72,29.94,10.0,Variable,4.6,-,N/A,,Overcast,0,2012-11-13 01:53:00
5:53 PM,33.1,27.0,78,29.95,10.0,Calm,Calm,-,N/A,,Mostly Cloudy,0,2012-11-13 02:53:00
6:53 PM,35.1,23.0,61,29.96,10.0,Variable,3.5,-,N/A,,Overcast,0,2012-11-13 03:53:00
7:53 PM,34.0,23.0,64,29.98,10.0,NNE,12.7,21.9,N/A,,Overcast,20,2012-11-13 04:53:00
8:53 PM,33.1,24.1,70,29.99,10.0,WNW,5.8,-,N/A,,Overcast,290,2012-11-13 05:53:00
9:53 PM,33.1,24.1,70,30.00,10.0,ENE,11.5,17.3,N/A,,Overcast,70,2012-11-13 06:53:00
10:33 PM,32.0,24.8,75,30.01,2.0,Variable,5.8,23.0,0.00,Snow,Light Snow,0,2012-11-13 07:33:00
10:43 PM,30.2,26.6,86,30.02,1.5,NNE,10.4,16.1,0.00,Snow,Light Snow,30,2012-11-13 07:43:00
10:53 PM,30.9,25.0,79,30.02,1.5,NNW,5.8,17.3,0.00,Snow,Light Snow,330,2012-11-13 07:53:00
11:06 PM,30.2,26.6,86,30.01,3.0,Variable,5.8,-,0.00,Snow,Light Snow,0,2012-11-13 08:06:00
11:16 PM,30.2,24.8,80,30.02,9.0,Calm,Calm,-,0.00,,Overcast,0,2012-11-13 08:16:00
11:53 PM,33.1,21.0,61,30.02,10.0,NE,9.2,-,0.00,,Overcast,40,2012-11-13 08:53:00